Bagus Hidayat

Scout - Dewa United
4 Jun 2028
Sonntag
Verarbeitung

Persönlichkeit

Anpassungsfähigkeit (8) Ehrgeiz (13) Kontroverse (5) Loyalität (16) Druck (12) Professionalität (1) Fairness (11) Temperament (17)

Profil

Trainerstil Demokratisch
Lizenz Nationale A
Entschlossenheit 2
Menschenführung 5
Motivation 5
Disziplin 2
Arbeitszufriedenheit
100%
Ermüdung
0%
Rolle Scout
Gehalt 34.7K p/W
Vertrag 14.03.2030

Leistung

Verhalten Gut
Trainingseffektivität
39%
Spielerentwicklung
25%
Verletzungsprävention
35%
Taktische Umsetzung
35%

Letzte Ereignisse

Spieler begutachtet jetzt
Spieler begutachtet jetzt

Aktuell beobachtet

83
Spieler Verein Status Fähigkeit Vertrauen Beobachtet Zuletzt beobachtet Letzte Stimme
Santiago Cubides Panserraikos Aktiv 120 / 129 40% 1 02.06.2028 -
Nicola Dalmonte Trento Aktiv 103 / 97 40% 1 02.06.2028 -
Pablo Viudez Shrewsbury Town Aktiv 94 / 120 40% 1 01.06.2028 -
Ciaran McGuckin Rotherham United Aktiv 100 / 118 40% 1 01.06.2028 -
Jort van der Sande Bali United Aktiv 106 / 96 40% 2 28.01.2028 -
Lautaro Gordillo Colegiales Aktiv 113 / 101 40% 2 28.01.2028 -
Ljupce Doriev Sogdiana Aktiv 124 / 103 40% 1 24.01.2028 -
Owen Falconis Cerrito Aktiv 112 / 108 40% 1 24.01.2028 -
Diego Campos Bali United Aktiv 112 / 115 40% 6 23.01.2028 -
James Rodrigues Kolomna Aktiv 67 / 86 40% 1 23.01.2028 -
Shaq Forde Bristol Rovers Aktiv 101 / 120 40% 1 22.01.2028 -
Enzo González Defensores Aktiv 106 / 94 40% 1 22.01.2028 -
Sávio PSM Aktiv 100 / 100 40% 2 20.01.2028 -
Ilja Safronov Rotor Aktiv 104 / 81 40% 1 20.01.2028 -
Jonathan Cañete Portuguesa Aktiv 113 / 119 40% 1 18.01.2028 -
Alejandro Melo Temperley Aktiv 114 / 132 40% 1 18.01.2028 -
Gustavo Viera Cerro Largo Aktiv 102 / 120 40% 3 17.01.2028 -
Ronny Maza Aragua Aktiv 92 / 76 40% 1 17.01.2028 -
Sudi Abdallah Persijap Aktiv 90 / 90 40% 3 16.01.2028 -
Jacques Thémopelé PSM Aktiv 83 / 72 40% 3 16.01.2028 -
Gustavo França Arema Aktiv 112 / 100 40% 6 15.01.2028 -
Lisandro Cabrera Maipú Aktiv 103 / 106 40% 2 15.01.2028 -
Mihailo Perović Persebaya Aktiv 102 / 111 40% 4 14.01.2028 -
Santiago Apa All Boys Aktiv 110 / 96 40% 1 14.01.2028 -
Santiago Herrera Estudiantes de Caracas Aktiv 90 / 83 40% 1 13.01.2028 -
Yehor Kondratiuk Kokand 1912 Aktiv 104 / 93 40% 1 11.01.2028 -
Facundo Castelli Estudiantes Aktiv 124 / 122 40% 1 10.01.2028 -
Alexis Domínguez Chacarita Juniors Aktiv 97 / 117 40% 1 10.01.2028 -
Ezra Walian Persik Aktiv 105 / 90 40% 3 09.01.2028 -
Sebastián Marfort Racing Aktiv 108 / 89 40% 1 08.01.2028 -
Arwin Javad Persijap Aktiv 78 / 74 40% 1 08.01.2028 -
Danilo Santacruz Madura United Aktiv 101 / 111 40% 3 05.01.2028 -
Cristian Uribe Universitario Popayan Aktiv 106 / 85 40% 1 05.01.2028 -
Aly Ndom Persijap Aktiv 95 / 86 51% 1 04.01.2028 -
Michael Ruhs Kokand 1912 Aktiv 110 / 87 40% 2 03.01.2028 -
Kianz Froese Semen Padang Aktiv 102 / 88 40% 2 03.01.2028 -
Dejan Tumbas Persis Aktiv 111 / 89 40% 3 01.01.2028 -
Matt Bell Waitakere United Aktiv 111 / 103 40% 1 31.08.2027 -
Abu Kamara Persis Aktiv 99 / 112 40% 2 30.08.2027 -
Francisco Borda Central Norte Aktiv 106 / 91 40% 1 28.08.2027 -
Kazaki Nakagawa Semen Padang Aktiv 89 / 81 40% 1 26.08.2027 -
Agustín Gallo Tristán Suárez Aktiv 129 / 103 40% 1 26.08.2027 -
Ahmad Noviandani Madura United Aktiv 72 / 95 40% 1 26.08.2027 -
Lucas Pedraza Defensores Unidos Aktiv 120 / 104 40% 1 19.08.2027 -
Sergio Castel Persik Aktiv 106 / 128 40% 2 17.08.2027 -
Gustavo Almeida Persija Aktiv 103 / 98 40% 4 17.08.2027 -
Juan Cruz Franzoni Gimnasia y Esgrima Aktiv 89 / 123 40% 2 14.08.2027 -
Destiny Efosa Egharevba Picerno Aktiv 109 / 103 40% 2 05.08.2027 -
Harvey Saunders Tranmere Rovers Aktiv 68 / 90 40% 3 04.08.2027 -
Alexis Gómez Persijap Aktiv 109 / 102 40% 1 03.08.2027 -
Uilliam Barros Persib Aktiv 118 / 95 40% 1 31.07.2027 -
Chris Van Hattum Waitakere United Aktiv 86 / 73 40% 1 25.07.2027 -
Naoufel Zerhouni Nasaf Aktiv 112 / 123 40% 1 25.07.2027 -
Angel Uñates Güemes Aktiv 103 / 81 40% 1 22.07.2027 -
Cameron Cook Borneo Aktiv 103 / 108 40% 1 17.07.2027 -
Luciano Acosta Agropecuario Argentino Aktiv 102 / 110 40% 1 16.07.2027 -
Diky Indrayana Madura United Aktiv 85 / 74 40% 1 16.07.2027 -
José Miers 12 de Octubre Aktiv 120 / 94 40% 1 16.07.2027 -
Harlan Suardi PSIM Aktiv 70 / 79 40% 1 14.07.2027 -
Bogdan Ovsyannikov Orenburg Aktiv 95 / 114 40% 1 13.07.2027 -
Ignacio Chicco Aldosivi Aktiv 113 / 145 40% 1 13.07.2027 -
Daniil Agureev Amkar Aktiv 106 / 90 40% 1 13.07.2027 -
Ronan Curtis Plymouth Argyle Aktiv 108 / 103 40% 1 12.07.2027 -
Aleksej Golijanin Sokol Aktiv 85 / 101 40% 1 08.07.2027 -
Alexandr Dolgov Amkar Aktiv 112 / 102 40% 1 08.07.2027 -
Omar Popov Dinamo St Petersburg Aktiv 93 / 100 40% 1 07.07.2027 -
Alexandr Yushin Torpedo Moscow Aktiv 121 / 109 40% 1 07.07.2027 -
Dalberto Arema Aktiv 117 / 107 40% 1 05.07.2027 -
Nermin Haljeta PSIM Aktiv 99 / 106 40% 2 04.07.2027 -
Dimitar Mitkov Madura United Aktiv 112 / 108 40% 1 01.07.2027 -
Aldair Ramírez Chernomorets Aktiv 120 / 88 40% 2 30.06.2027 -
Alexandr Saplinov Volga Aktiv 90 / 97 40% 1 30.06.2027 -
Vitaly Dunay (Karpenko) Chaika Aktiv 71 / 70 40% 1 25.06.2027 -
Félix Villacorta Baltika Aktiv 111 / 82 40% 1 23.06.2027 -
Danil Karpov Chernomorets Aktiv 85 / 75 40% 1 22.06.2027 -
Esteban da Silva Racing Aktiv 97 / 128 40% 1 21.06.2027 -
Léo Lelis Persebaya Aktiv 79 / 93 44% 1 17.08.2026 -
Mitchell Duke Macarthur FC Aktiv 102 / 86 40% 1 09.08.2026 -
Bruno Paraíba Persebaya Aktiv 91 / 108 40% 1 08.08.2026 -
Hamed Pakdel Persib Aktiv 112 / 103 40% 1 06.08.2026 -
Braian Uribe Aktiv 99 / 102 40% 1 05.08.2026 -
Alexandre Ramalingom Persita Aktiv 94 / 127 40% 1 04.08.2026 -
Andrew Jung Persib Aktiv 98 / 93 40% 1 03.08.2026 -